Home   Weather   Jaipur   Past weeks

Flag for India Past Weather in Jaipur, Rajasthan, India — Yesterday and Last 2 Weeks

Now
82 °F

Light rain. Broken clouds.


Feels Like: 92 °F
Forecast: 78 / 89 °F
Wind: 3 mph from Northwest

Location: Jaipur / Sanganer

Current Time: Aug 30, 2016 at 4:37:56 PM

Latest Report: Aug 30, 2016 at 4:00 PM


Visibility: 1 mi

Pressure: 29.59 "Hg

Humidity: 89%

Dew Point: 79 °F

Location of JaipurLocation

Past Weather in Jaipur — Graph

°F

Jaipur Temperature Yesterday

Maximum temperature yesterday: 90 °F (at 2:00 PM)
Minimum temperature yesterday: 77 °F (at 2:00 AM)
Average temperature yesterday: 82 °F

High & Low Weather Summary for the Past Weeks

 TemperatureHumidityPressure
High91 °F (Aug 26, 4:30 PM)100% (Aug 20, 6:30 PM)29.92 "Hg (Aug 20, 6:30 PM)
Low73 °F (Aug 28, 8:00 AM)59% (Aug 16, 4:00 PM)29.50 "Hg (Aug 20, 3:00 PM)
Average82 °F83%29.65 "Hg
* Reported Aug 15 3:00 PM — Aug 30 3:00 PM, Jaipur, Weather by CustomWeather, © 2016

Note: Actual official high and low records may vary slightly from our data, if they occured in-between our weather recording intervals... More about our weather records

Advertising

Jaipur Weather History for the Previous 24 Hours

Scroll right to see more
 ConditionsComfort  
Time TempWeatherWind HumidityBarometerVisibility
3:00 PM
Tue, Aug 30
84 °FLight rain. Broken clouds.7 mph79%29.59 "Hg1 mi
2:30 PM86 °FBroken clouds.6 mph75%29.62 "Hg2 mi
2:00 PM86 °FBroken clouds.8 mph79%29.62 "Hg2 mi
1:30 PM88 °FBroken clouds.7 mph70%29.65 "Hg2 mi
1:00 PM88 °FBroken clouds.7 mph75%29.65 "Hg2 mi
12:30 PM88 °FBroken clouds.5 mph70%29.68 "Hg2 mi
12:00 PM86 °FBroken clouds.6 mph75%29.68 "Hg2 mi
11:30 AM88 °FBroken clouds.6 mph75%29.68 "Hg2 mi
10:00 AM84 °FFog.6 mph79%29.71 "Hg2 mi
9:30 AM82 °FFog.6 mph84%29.71 "Hg2 mi
9:00 AM82 °FFog.7 mph84%29.71 "Hg2 mi
8:30 AM82 °FFog.1 mph89%29.68 "Hg2 mi
8:00 AM82 °FFog.2 mph89%29.65 "Hg2 mi
7:00 AM79 °FFog.1 mph100%29.65 "Hg2 mi
6:00 AM79 °FPartly cloudy.No wind94%29.65 "Hg3 mi
5:30 AM79 °FPartly cloudy.1 mph94%29.65 "Hg3 mi
5:00 AM79 °FPartly cloudy.No wind94%29.65 "Hg3 mi
3:00 AM79 °FPartly cloudy.No wind94%29.65 "Hg3 mi
2:00 AM79 °FPartly cloudy.No wind89%29.65 "Hg3 mi
1:00 AM79 °FPartly cloudy.No wind94%29.65 "Hg3 mi
12:00 AM81 °FPartly cloudy.1 mph84%29.68 "Hg3 mi
11:30 PM
Mon, Aug 29
79 °FPartly cloudy.2 mph89%29.68 "Hg3 mi
11:00 PM81 °FPartly cloudy.2 mph84%29.68 "Hg3 mi
10:00 PM81 °FPartly cloudy.1 mph89%29.71 "Hg3 mi
Weather by CustomWeather, © 2016

See weather overviewHow to use our weather pages